Probability
40 41 44 48 48 48 47 46 45 43 42 41 41 42 42 39 35 31 28 27 25 20 18 18 17 17 15 11 10 12 14 12 10 11 11 9 6 4 3 3 3 3 3
43 45 48 51 52 51 48 48 49 49 46 43 43 44 44 43 40 37 32 30 28 25 23 23 21 19 17 15 14 14 13 12 12 13 13 10 7 4 3 3 4 4 4
53 54 57 60 60 55 52 53 56 55 50 47 46 46 46 46 45 43 39 36 34 32 30 29 27 23 22 21 20 17 13 11 14 16 15 12 8 5 4 4 5 4 4
63 64 67 69 66 61 58 60 61 57 50 46 46 46 46 47 46 44 42 39 38 36 35 34 30 27 25 24 23 20 16 13 14 15 14 12 9 6 4 4 4 4 4
71 71 71 71 68 66 66 67 65 57 50 46 44 42 43 43 42 42 41 40 39 39 37 35 31 28 24 21 18 18 16 15 15 14 14 13 10 8 5 3 2 3 3
76 75 74 72 70 70 72 72 68 61 55 50 46 42 40 35 32 33 35 38 40 39 37 34 30 25 21 16 11 9 10 12 12 11 11 12 12 10 6 3 2 3 3
77 77 76 75 73 71 72 71 68 65 60 56 53 50 43 32 24 21 25 32 39 39 35 32 29 24 21 17 12 9 8 8 7 6 7 10 13 12 9 6 4 4 4
74 75 75 74 72 70 68 67 65 65 64 62 60 58 50 34 20 13 17 26 34 35 32 30 30 26 21 19 17 15 13 11 7 4 5 7 9 11 11 9 8 7 6
68 69 69 68 68 68 68 66 64 63 64 64 63 60 51 36 19 10 12 21 27 26 25 26 28 26 21 17 18 18 17 15 10 6 4 4 5 6 8 9 10 8 7
63 62 62 62 65 66 66 66 64 62 61 60 59 56 51 39 22 8 8 16 22 22 21 20 21 19 15 12 13 15 16 16 14 10 7 6 5 5 5 6 8 8 7
59 59 58 59 59 60 61 64 64 61 59 57 54 53 52 43 25 8 5 10 17 20 19 16 14 10 7 5 6 9 11 12 14 14 12 9 8 8 8 8 9 9 8
56 56 55 54 52 51 55 60 61 60 56 52 49 47 47 42 25 8 2 4 9 15 17 14 9 5 3 1 1 3 4 5 8 11 11 10 9 10 13 14 13 12 10
53 52 50 47 45 45 49 53 54 53 49 45 42 40 40 38 27 12 3 1 2 7 12 9 5 3 2 1 0 1 1 2 4 6 7 8 8 10 13 16 15 13 11
47 46 43 40 39 42 44 44 43 43 41 39 38 38 39 37 29 18 10 5 3 4 6 7 4 3 3 3 3 2 2 2 3 4 5 6 7 8 11 13 15 14 13
43 41 38 34 34 37 38 35 31 30 31 31 32 35 37 34 28 19 12 8 6 4 4 6 6 6 7 7 7 6 4 2 2 2 3 5 6 7 9 12 14 14 13
40 38 35 32 32 33 33 28 22 19 16 15 19 24 25 23 18 11 7 6 4 3 4 6 7 9 9 9 9 7 4 1 1 2 3 5 6 7 9 11 13 13 12
36 35 33 32 31 31 32 29 24 17 11 7 7 9 10 9 6 3 1 1 1 2 3 5 7 8 9 9 9 7 4 2 2 3 5 7 7 7 8 9 11 11 11
31 30 30 31 30 29 31 31 28 24 19 14 8 4 2 1 1 0 0 1 1 2 3 5 6 9 10 10 10 8 6 5 5 5 6 7 8 8 7 7 7 8 8
27 27 28 29 29 27 27 28 27 26 25 21 15 8 4 1 1 0 1 3 4 4 5 6 7 9 11 12 12 10 8 8 8 7 5 5 7 7 7 5 5 5 5
23 22 22 24 25 23 22 24 26 25 24 22 19 14 8 6 6 4 3 5 7 8 8 8 7 8 11 13 13 12 10 9 9 7 5 5 5 5 5 3 2 3 3
18 16 15 16 18 19 18 20 23 23 22 21 18 14 10 10 13 12 10 10 11 11 11 10 8 8 11 13 13 13 12 10 8 6 5 5 4 3 2 1 1 1 1
12 11 11 12 14 15 15 16 19 20 19 18 16 11 8 11 16 19 20 18 15 13 13 11 9 9 11 13 13 12 11 9 6 5 4 4 3 2 1 0 0 0 0
8 9 10 12 12 12 12 14 15 15 15 14 12 10 8 10 13 17 21 21 19 16 15 14 11 9 10 12 13 11 8 5 4 4 4 4 4 3 3 2 0 0 0
8 9 12 13 12 11 11 12 12 11 11 10 9 8 8 8 9 12 16 19 20 19 18 17 15 12 10 10 11 9 6 4 4 4 6 6 5 4 5 3 1 0 1
9 10 12 12 11 11 10 10 9 8 7 6 6 5 5 5 6 8 11 15 19 20 19 20 19 16 13 11 10 8 5 3 3 4 6 6 5 5 4 3 1 0 1
10 11 11 11 11 10 10 9 8 6 5 4 4 4 3 4 4 6 8 12 17 18 18 20 21 19 16 12 10 8 5 3 2 2 4 5 4 4 2 1 0 0 1
Wind_Speed
8 6 5 6 6 5 4 4 3 3 2 3 3 3 3 4 3 3 3 3 3 3 2 2 1 1 1 1 1 1 1 1 2 2 2 3 4 4 4 4 4 4 3
8 7 6 5 5 5 5 4 4 4 4 4 4 3 4 4 3 4 4 3 3 3 2 1 1 1 1 1 1 1 0 2 3 4 3 3 3 4 4 4 4 4 4
8 8 7 6 6 5 5 4 4 4 4 4 4 4 3 3 3 3 3 3 2 2 2 1 1 1 1 1 1 1 1 1 3 4 4 3 2 3 4 3 3 2 4
8 8 7 7 6 6 5 4 4 4 4 3 3 3 3 3 3 3 3 3 3 2 1 1 1 1 2 2 2 1 1 1 2 3 4 4 3 3 3 3 2 2 2
7 8 7 6 5 5 4 4 4 4 5 3 3 3 3 3 3 2 3 3 2 2 2 2 2 1 1 1 1 1 1 2 2 3 4 4 3 4 4 3 3 3 2
6 6 5 6 6 5 4 4 4 4 4 4 4 3 4 3 2 3 2 2 2 2 2 2 3 4 4 4 3 2 2 3 3 3 3 4 5 4 4 4 3 3 3
5 5 5 5 5 4 4 4 4 4 3 3 3 3 3 3 4 4 3 2 2 2 2 2 3 2 4 3 4 5 4 5 5 3 3 4 4 5 5 5 4 4 3
5 4 4 5 5 4 4 5 4 4 4 4 3 3 3 3 5 5 4 3 3 2 3 3 3 1 2 2 3 3 3 3 4 4 4 4 4 4 5 5 5 3 2
4 4 4 4 4 4 4 4 4 3 3 4 3 3 3 3 5 5 4 3 3 3 3 3 3 2 2 3 3 3 3 3 4 4 4 4 5 5 4 3 4 3 3
3 3 3 3 3 4 4 3 3 3 4 3 3 3 3 3 5 5 5 3 3 3 3 2 2 2 3 3 3 3 3 3 3 3 3 4 5 5 7 5 4 4 3
1 2 2 2 2 3 3 2 3 3 3 3 3 3 4 4 6 6 6 3 3 3 3 3 2 3 4 5 4 3 4 2 2 3 3 3 4 4 5 5 4 4 4
1 1 1 1 2 2 2 2 2 3 4 4 3 3 3 3 4 5 7 6 4 3 2 2 2 6 6 6 5 4 4 3 3 3 3 4 4 4 5 5 5 5 4
1 1 1 1 1 1 2 2 2 2 3 3 3 3 2 2 3 5 7 6 6 3 2 2 2 5 6 5 7 7 5 4 4 4 4 4 4 4 4 4 4 4 4
1 1 1 2 2 1 1 1 1 1 2 2 2 2 2 2 2 3 3 4 5 4 4 3 3 5 4 4 4 4 5 4 4 4 3 3 3 3 3 3 4 4 4
0 1 1 2 2 1 1 0 1 0 2 3 2 2 3 3 3 4 3 3 3 3 3 2 2 2 4 4 4 4 4 4 4 4 3 3 3 3 3 3 3 3 4
1 1 2 1 1 2 2 1 3 0 1 2 3 3 2 2 3 3 3 3 4 4 4 4 4 4 5 4 4 4 4 4 4 4 4 3 3 3 3 3 3 4 5
1 2 3 2 1 1 2 3 2 1 1 1 2 3 4 4 3 4 4 4 4 5 5 5 5 5 4 4 4 4 4 4 3 4 4 3 3 3 3 3 4 4 5
2 2 2 2 2 2 2 3 3 3 2 1 2 4 5 5 4 5 4 3 3 4 5 5 5 4 4 4 4 3 3 3 3 4 3 3 3 3 3 3 3 4 4
3 2 2 2 3 3 2 3 2 2 2 2 2 2 4 5 4 3 3 3 4 4 5 5 4 3 3 2 2 2 3 3 3 3 3 3 3 3 3 4 4 5 5
2 3 3 3 3 3 3 2 2 2 2 1 2 1 2 3 3 3 3 4 4 4 3 3 3 2 2 2 2 2 3 2 2 3 3 3 3 3 4 5 4 4 4
3 2 3 4 3 3 3 2 2 2 2 2 1 1 2 3 3 3 3 4 4 3 2 3 3 3 3 2 2 3 2 2 1 2 2 3 3 3 3 3 4 4 4
4 3 3 3 2 2 2 3 2 2 2 2 2 1 3 3 1 1 2 2 2 2 2 2 3 2 2 2 2 2 2 2 2 2 2 3 3 3 3 3 4 4 4
4 4 3 2 1 2 3 2 2 2 1 1 1 1 1 2 2 1 1 1 1 2 2 2 2 1 1 2 1 1 1 2 2 3 3 3 3 4 4 4 5 4 4
4 3 3 2 2 3 2 2 2 2 1 1 1 1 1 1 2 2 2 1 1 1 1 0 1 1 1 2 1 0 1 1 2 2 3 3 3 3 3 3 4 5 4
3 3 3 2 2 2 2 2 2 2 1 1 1 1 2 2 2 2 2 1 1 1 1 0 0 0 0 1 1 1 0 1 1 3 3 3 3 3 3 4 3 3 3
2 3 3 2 2 2 1 1 2 2 2 2 2 1 2 2 2 2 2 1 1 1 1 1 1 1 2 2 1 0 0 0 1 2 3 3 3 3 3 3 4 3 3
Wind_Direction
183 184 193 181 190 196 199 198 191 194 198 199 199 196 195 195 196 210 236 221 220 228 239 220 236 275 313 309 288 231 179 145 134 123 119 123 122 122 126 129 133 132 128
179 177 187 183 185 192 197 197 195 200 200 201 203 207 211 202 201 208 234 227 223 231 233 224 240 260 264 283 295 288 185 143 139 140 135 135 132 137 140 148 149 148 140
176 178 184 186 188 195 199 197 197 199 201 203 205 208 217 215 207 213 219 224 225 236 240 228 228 247 250 258 256 248 200 140 137 146 152 148 144 152 146 156 156 150 155
175 180 182 185 188 191 193 192 194 197 203 203 207 210 213 217 215 220 216 219 220 222 222 218 239 241 236 238 228 206 174 140 133 145 149 154 151 161 161 169 173 179 166
172 175 177 177 180 183 185 194 192 196 206 203 208 212 217 215 219 218 232 219 219 221 214 206 208 192 185 176 214 175 167 163 162 161 162 165 169 173 183 186 181 176 181
169 172 167 171 177 181 180 191 190 191 202 205 210 212 218 222 177 170 206 241 222 227 225 213 197 196 176 164 162 159 162 184 182 178 188 186 185 185 180 185 182 180 189
164 166 165 174 178 180 183 188 195 194 202 213 212 205 207 191 166 170 191 241 226 229 238 235 244 207 171 184 190 189 189 197 193 194 200 205 194 189 187 192 196 201 202
158 167 171 178 184 183 188 193 198 197 202 209 212 201 205 188 173 181 200 228 235 226 226 230 228 198 206 193 203 193 195 199 207 209 212 216 210 196 195 196 195 198 200
165 178 181 182 185 188 196 201 196 197 205 209 211 206 202 177 181 186 189 219 228 236 233 231 226 198 187 177 197 204 210 217 216 209 201 198 201 204 192 185 192 191 205
164 173 170 181 197 199 195 202 200 200 209 206 207 211 199 176 182 188 194 218 229 232 229 223 211 196 166 178 204 210 218 229 209 196 197 206 208 207 202 200 201 205 204
120 170 177 189 203 200 182 193 198 205 208 212 211 213 200 183 179 192 197 217 234 239 229 214 188 176 178 195 214 225 227 234 228 209 207 206 206 201 202 207 210 211 214
94 159 164 176 221 186 167 196 206 209 212 211 207 215 190 176 175 198 202 216 244 263 260 232 187 184 197 209 220 230 232 230 234 225 214 212 212 211 207 206 211 217 226
113 146 162 176 210 200 191 208 215 214 220 219 220 219 202 184 177 193 199 221 241 251 281 301 236 200 204 216 226 225 220 224 228 225 225 223 219 218 206 198 206 217 230
133 172 183 182 194 194 180 199 209 221 235 236 240 236 221 202 189 194 204 217 235 244 258 261 234 217 220 230 224 221 218 226 231 230 232 232 217 207 210 207 207 207 219
150 236 226 219 200 172 147 24 213 235 233 222 225 223 224 226 222 209 210 214 224 230 232 226 228 220 218 216 217 214 212 216 227 232 234 234 227 215 216 214 210 208 219
259 267 266 239 210 184 161 118 27 220 206 187 208 210 210 200 185 186 205 217 221 206 209 230 229 232 231 223 217 215 211 217 224 227 224 219 221 225 226 221 218 218 226
268 279 287 287 262 231 209 206 213 264 297 255 216 200 202 201 191 195 206 215 219 194 210 228 233 234 235 226 219 220 218 211 214 230 229 224 219 221 223 224 224 225 228
270 268 272 269 272 256 248 244 226 221 231 248 235 215 209 210 210 214 207 188 210 210 227 234 236 236 233 230 225 224 222 212 214 226 228 228 224 224 226 228 227 234 237
270 262 260 273 276 271 264 265 255 234 228 226 235 201 204 212 213 216 190 210 222 224 228 236 237 242 243 235 234 228 227 220 219 221 227 232 232 230 231 233 233 240 238
251 246 252 261 264 261 261 257 258 265 262 244 245 212 166 182 202 195 201 222 233 235 230 239 244 249 251 244 236 232 232 228 229 234 234 236 240 241 243 242 239 238 237
284 265 249 260 264 265 271 273 268 267 272 277 281 249 198 209 210 201 201 213 224 232 234 248 249 250 252 248 242 239 242 245 246 259 257 253 256 254 256 256 253 250 251
282 268 262 267 282 298 296 289 294 292 281 267 265 243 230 247 249 234 221 220 230 235 231 238 249 250 256 261 248 240 241 248 252 255 264 261 257 258 258 255 257 253 250
267 268 275 286 306 296 284 286 289 285 291 292 274 261 255 283 293 292 272 235 232 245 240 243 254 256 272 283 266 215 238 252 256 258 261 260 261 260 257 253 253 255 251
278 282 283 292 284 276 292 319 323 320 317 315 320 318 286 296 299 305 304 301 266 273 286 261 279 24 20 352 347 317 322 316 298 275 273 270 266 265 262 258 254 254 252
293 296 290 294 291 298 315 319 314 311 320 329 326 320 308 304 304 302 290 280 251 246 241 188 278 306 282 278 299 300 323 335 326 311 286 271 272 272 269 271 271 271 264
314 312 324 340 342 340 337 329 315 324 330 329 330 331 311 305 305 303 305 321 304 246 234 215 217 262 287 260 271 196 154 315 302 290 275 267 268 274 274 267 272 272 270